Location: Avon Lake
(41.5219°N, 93.5010°W)
Time: 00:39:27
(UTC+00:00)

Tiangong - Pass Details

Date: 22 April 2024
Orbit: 372 x 375 km, 41.5° (Epoch: 20 May)

Event Time Altitude Azimuth Distance (km) Brightness Sun altitude
Rises 03:30:01 0° 277° (W) 2,253 2.5 -24.4°
Reaches altitude 10° 03:32:06 10° 276° (W) 1,395 1.3 -24.7°
Enters shadow 03:33:10 19° 273° (W) 968 0.4 -24.8°
